Temp
-17 -17 -17 -16 -17 -17 -17 -17 -17 -18 -19 -19 -19 -20 -20 -20 -20 -20 -19 -20 -20 -20 -19 -19 -19 -19 -19 -18 -18 -18 -18 -18 -18 -17 -17 -17 -17 -17 -17 -17 -18 -17 -17
-17 -17 -17 -17 -17 -17 -17 -17 -17 -18 -18 -19 -19 -19 -19 -20 -20 -20 -20 -20 -20 -20 -19 -19 -19 -19 -19 -18 -18 -18 -18 -18 -18 -17 -17 -17 -17 -17 -17 -17 -17 -17 -17
-17 -17 -17 -17 -17 -17 -17 -17 -17 -18 -18 -18 -19 -19 -19 -19 -19 -20 -20 -20 -19 -19 -19 -19 -19 -19 -19 -19 -18 -18 -18 -18 -18 -18 -18 -18 -17 -17 -17 -17 -17 -17 -17
-17 -17 -17 -17 -17 -17 -17 -17 -17 -18 -18 -18 -18 -18 -18 -19 -19 -19 -19 -19 -19 -19 -19 -19 -19 -18 -18 -18 -18 -18 -18 -18 -18 -17 -17 -17 -17 -17 -17 -17 -17 -17 -17
-17 -17 -17 -17 -17 -17 -17 -17 -17 -18 -18 -18 -18 -18 -18 -18 -18 -19 -19 -18 -19 -19 -18 -18 -18 -18 -18 -18 -18 -18 -18 -17 -17 -17 -17 -17 -17 -17 -17 -17 -17 -17 -17
-17 -17 -17 -17 -17 -17 -17 -17 -17 -17 -17 -17 -18 -18 -18 -18 -18 -18 -18 -18 -18 -18 -18 -18 -18 -18 -18 -17 -17 -17 -17 -17 -17 -17 -17 -17 -17 -17 -17 -17 -17 -17 -17
-17 -17 -17 -17 -17 -17 -18 -17 -17 -17 -17 -17 -17 -18 -18 -18 -18 -18 -18 -18 -18 -18 -18 -18 -17 -17 -17 -17 -17 -17 -17 -17 -17 -17 -17 -17 -17 -17 -17 -17 -17 -17 -17
-17 -17 -17 -17 -17 -17 -17 -17 -17 -17 -17 -17 -17 -17 -17 -18 -18 -18 -18 -18 -18 -18 -18 -17 -17 -17 -17 -17 -17 -17 -17 -17 -17 -17 -17 -17 -17 -17 -17 -17 -17 -17 -17
-17 -17 -17 -17 -17 -17 -17 -17 -17 -17 -17 -17 -17 -17 -17 -17 -17 -17 -17 -17 -17 -17 -17 -17 -17 -17 -17 -17 -17 -17 -17 -17 -17 -17 -17 -17 -17 -17 -17 -17 -17 -17 -17
-17 -17 -17 -17 -17 -17 -17 -17 -18 -17 -17 -17 -17 -17 -17 -17 -17 -17 -17 -17 -17 -17 -17 -17 -17 -17 -17 -17 -17 -17 -17 -17 -17 -17 -17 -17 -17 -17 -17 -17 -17 -17 -17
-18 -17 -17 -17 -17 -17 -17 -17 -17 -18 -17 -17 -17 -17 -17 -17 -17 -16 -17 -17 -17 -17 -17 -17 -17 -17 -17 -17 -17 -17 -17 -17 -17 -17 -17 -17 -17 -17 -17 -17 -17 -17 -18
-18 -18 -17 -18 -18 -18 -17 -17 -17 -17 -17 -17 -17 -17 -17 -17 -17 -17 -16 -16 -16 -16 -16 -17 -17 -17 -17 -17 -17 -17 -17 -17 -17 -17 -17 -17 -17 -17 -17 -17 -17 -18 -18
-18 -18 -18 -18 -18 -18 -18 -17 -17 -17 -17 -17 -17 -17 -17 -17 -17 -17 -16 -16 -16 -16 -16 -16 -17 -17 -17 -17 -17 -17 -17 -17 -17 -17 -17 -17 -17 -17 -17 -17 -17 -18 -18
-18 -19 -18 -18 -18 -18 -18 -18 -17 -17 -17 -17 -17 -17 -17 -17 -17 -17 -16 -16 -16 -16 -16 -16 -16 -16 -17 -17 -17 -17 -17 -17 -17 -17 -17 -17 -17 -17 -17 -17 -18 -18 -18
-19 -18 -18 -19 -18 -18 -18 -18 -18 -17 -17 -17 -17 -17 -17 -17 -17 -17 -16 -16 -16 -16 -16 -16 -16 -16 -16 -16 -16 -17 -17 -17 -17 -16 -17 -17 -17 -17 -17 -18 -18 -18 -18
-19 -19 -19 -19 -19 -18 -18 -18 -18 -18 -17 -17 -17 -17 -17 -17 -17 -17 -17 -17 -16 -16 -16 -16 -16 -16 -16 -16 -16 -17 -17 -17 -17 -17 -17 -17 -17 -17 -17 -18 -18 -18 -18
-20 -19 -19 -19 -19 -19 -18 -18 -18 -18 -18 -18 -18 -17 -17 -17 -17 -17 -17 -17 -17 -17 -17 -16 -16 -16 -16 -16 -16 -16 -17 -17 -17 -17 -17 -17 -17 -17 -17 -18 -18 -18 -18
-20 -20 -20 -20 -20 -20 -19 -19 -19 -18 -19 -19 -18 -18 -18 -18 -17 -17 -17 -17 -17 -17 -17 -17 -17 -17 -17 -17 -17 -17 -17 -17 -17 -17 -17 -17 -17 -18 -18 -18 -18 -18 -19
-21 -20 -20 -20 -20 -20 -20 -19 -19 -19 -19 -19 -19 -19 -18 -18 -18 -18 -17 -17 -17 -17 -17 -17 -17 -17 -17 -17 -17 -17 -17 -17 -17 -17 -17 -17 -18 -18 -18 -18 -19 -19 -19
-21 -21 -21 -21 -20 -20 -20 -20 -20 -19 -19 -19 -19 -19 -19 -18 -18 -18 -18 -17 -17 -17 -17 -17 -17 -17 -17 -17 -17 -18 -17 -17 -17 -18 -18 -18 -18 -18 -18 -19 -19 -19 -19
-22 -22 -22 -22 -22 -21 -20 -20 -20 -20 -20 -20 -19 -19 -19 -19 -19 -18 -18 -18 -18 -17 -17 -17 -17 -17 -17 -18 -18 -18 -18 -18 -18 -18 -18 -18 -18 -18 -19 -19 -19 -19 -19
-23 -23 -22 -22 -22 -22 -21 -20 -20 -20 -19 -20 -19 -19 -19 -19 -19 -19 -18 -18 -18 -18 -18 -18 -18 -18 -18 -18 -18 -18 -18 -18 -19 -19 -19 -19 -19 -19 -19 -19 -19 -19 -19
-25 -24 -24 -23 -23 -22 -22 -21 -20 -20 -20 -19 -19 -20 -19 -19 -19 -19 -19 -19 -19 -19 -18 -18 -18 -18 -18 -18 -18 -18 -18 -19 -19 -19 -19 -19 -19 -19 -19 -19 -19 -19 -19
-26 -26 -24 -24 -23 -23 -22 -22 -21 -20 -20 -20 -20 -20 -19 -19 -19 -19 -19 -19 -19 -19 -19 -19 -19 -19 -19 -19 -19 -19 -19 -19 -19 -19 -19 -19 -19 -19 -19 -19 -19 -19 -20
-26 -26 -25 -25 -24 -23 -23 -22 -22 -21 -20 -20 -20 -20 -19 -20 -19 -19 -19 -19 -19 -19 -19 -19 -19 -19 -19 -20 -19 -19 -19 -19 -20 -20 -20 -20 -20 -20 -20 -20 -20 -20 -20
-26 -26 -25 -25 -24 -23 -23 -22 -22 -22 -21 -20 -20 -20 -19 -19 -20 -20 -20 -20 -19 -20 -19 -19 -19 -20 -19 -20 -20 -20 -20 -20 -20 -20 -20 -20 -20 -20 -20 -20 -20 -20 -20
Height
5741 5735 5731 5728 5725 5722 5717 5713 5707 5701 5696 5691 5687 5685 5682 5680 5679 5677 5675 5674 5672 5670 5670 5669 5669 5671 5673 5676 5679 5682 5685 5688 5690 5694 5697 5700 5703 5705 5706 5707 5708 5708 5709
5738 5733 5730 5727 5724 5721 5717 5713 5709 5704 5699 5694 5690 5687 5684 5681 5680 5678 5677 5676 5676 5675 5674 5674 5675 5677 5678 5680 5683 5685 5687 5690 5693 5695 5698 5700 5702 5703 5704 5706 5707 5708 5709
5736 5732 5729 5726 5723 5720 5717 5713 5710 5706 5702 5697 5693 5690 5687 5685 5682 5681 5680 5679 5679 5679 5679 5680 5680 5681 5682 5684 5685 5688 5690 5693 5695 5698 5700 5702 5703 5705 5706 5707 5709 5709 5709
5734 5730 5728 5725 5722 5719 5716 5713 5710 5708 5704 5700 5696 5694 5691 5689 5686 5684 5684 5683 5683 5683 5683 5684 5684 5685 5686 5688 5689 5691 5694 5696 5698 5700 5702 5704 5706 5708 5709 5710 5710 5710 5709
5732 5728 5725 5723 5721 5718 5715 5712 5711 5709 5706 5703 5700 5698 5696 5693 5691 5689 5689 5688 5688 5688 5688 5688 5688 5689 5691 5692 5693 5695 5696 5699 5701 5703 5705 5707 5709 5710 5711 5710 5710 5709 5708
5729 5725 5722 5721 5719 5717 5714 5712 5710 5709 5707 5705 5703 5701 5699 5698 5695 5694 5693 5693 5692 5692 5693 5693 5693 5694 5695 5696 5697 5699 5701 5703 5704 5706 5708 5709 5710 5711 5711 5711 5710 5709 5707
5725 5722 5719 5717 5717 5715 5712 5710 5710 5710 5708 5707 5705 5704 5703 5701 5700 5698 5698 5697 5697 5698 5698 5699 5699 5700 5701 5702 5703 5704 5706 5707 5709 5710 5711 5711 5711 5712 5712 5711 5710 5708 5706
5721 5718 5716 5714 5713 5712 5711 5709 5708 5709 5708 5707 5706 5706 5705 5704 5704 5703 5702 5702 5702 5702 5703 5703 5704 5705 5706 5707 5708 5709 5710 5710 5711 5712 5712 5712 5712 5712 5711 5710 5708 5706 5703
5715 5714 5712 5710 5709 5708 5708 5708 5707 5708 5708 5708 5707 5707 5707 5706 5706 5706 5706 5706 5706 5706 5706 5707 5708 5709 5710 5710 5711 5711 5712 5712 5712 5712 5712 5712 5711 5710 5709 5707 5706 5703 5700
5710 5708 5706 5705 5705 5704 5705 5706 5705 5706 5706 5707 5707 5707 5708 5708 5708 5708 5708 5708 5709 5709 5709 5710 5710 5711 5712 5712 5712 5713 5713 5713 5712 5712 5712 5711 5709 5708 5707 5705 5702 5699 5697
5703 5702 5700 5700 5700 5700 5700 5701 5702 5702 5703 5704 5705 5706 5706 5707 5708 5708 5708 5709 5710 5710 5711 5711 5712 5712 5712 5712 5712 5712 5712 5712 5711 5710 5709 5708 5707 5706 5703 5701 5698 5695 5692
5696 5696 5695 5694 5694 5694 5695 5696 5697 5699 5699 5700 5702 5703 5704 5705 5706 5707 5708 5708 5709 5710 5710 5711 5711 5711 5712 5712 5712 5711 5711 5710 5709 5708 5707 5706 5704 5702 5699 5696 5693 5690 5687
5688 5688 5688 5688 5687 5688 5688 5690 5691 5692 5694 5696 5697 5698 5700 5701 5703 5704 5706 5707 5707 5708 5709 5710 5710 5710 5710 5710 5709 5709 5708 5708 5707 5706 5704 5703 5701 5698 5695 5692 5689 5686 5683
5681 5681 5681 5680 5680 5680 5681 5682 5684 5686 5687 5689 5691 5692 5694 5695 5697 5700 5702 5703 5704 5705 5706 5707 5707 5707 5707 5706 5706 5706 5705 5704 5703 5702 5700 5698 5696 5693 5691 5688 5684 5681 5676
5669 5670 5671 5672 5672 5673 5674 5675 5676 5678 5680 5682 5685 5687 5688 5690 5692 5694 5696 5698 5700 5701 5702 5702 5703 5703 5703 5702 5702 5702 5701 5699 5698 5696 5694 5692 5689 5686 5683 5680 5677 5674 5670
5661 5662 5661 5661 5663 5664 5666 5667 5668 5670 5671 5674 5677 5680 5682 5683 5685 5688 5690 5692 5693 5695 5696 5697 5697 5698 5698 5698 5697 5697 5695 5693 5691 5689 5687 5685 5682 5679 5676 5673 5670 5667 5663
5652 5651 5651 5652 5653 5655 5657 5659 5660 5662 5663 5665 5668 5671 5673 5676 5678 5680 5682 5684 5686 5687 5688 5690 5690 5691 5691 5691 5691 5690 5688 5686 5684 5683 5680 5678 5675 5672 5669 5665 5662 5659 5655
5641 5641 5642 5643 5643 5645 5647 5649 5651 5653 5655 5657 5660 5662 5664 5667 5670 5673 5675 5677 5678 5679 5680 5682 5682 5683 5683 5683 5683 5682 5681 5679 5677 5675 5672 5669 5666 5664 5660 5657 5654 5651 5647
5631 5629 5630 5631 5632 5634 5635 5638 5641 5644 5647 5650 5651 5654 5655 5658 5660 5663 5665 5667 5669 5671 5672 5673 5674 5674 5674 5674 5673 5673 5671 5669 5667 5665 5663 5660 5658 5655 5652 5649 5646 5642 5639
5619 5618 5618 5618 5619 5621 5624 5627 5630 5633 5637 5640 5642 5644 5647 5650 5652 5654 5655 5657 5659 5661 5662 5663 5664 5664 5665 5665 5664 5663 5661 5659 5658 5656 5654 5651 5649 5646 5644 5641 5638 5635 5632
5604 5603 5604 5605 5606 5608 5612 5616 5620 5624 5627 5630 5633 5635 5639 5642 5644 5645 5647 5648 5650 5651 5653 5654 5654 5655 5655 5654 5654 5653 5652 5650 5648 5647 5645 5643 5641 5638 5636 5633 5630 5628 5625
5585 5587 5589 5591 5593 5596 5600 5604 5608 5613 5616 5620 5624 5626 5630 5633 5635 5637 5638 5640 5641 5643 5644 5645 5645 5645 5645 5645 5645 5644 5643 5642 5640 5638 5637 5635 5633 5631 5629 5627 5624 5621 5618
5565 5570 5574 5578 5582 5585 5589 5592 5597 5602 5606 5611 5615 5618 5621 5624 5626 5629 5631 5633 5635 5635 5636 5637 5637 5637 5638 5638 5637 5636 5635 5634 5633 5632 5630 5629 5627 5625 5622 5620 5618 5615 5612
5554 5559 5563 5567 5572 5576 5579 5582 5586 5592 5597 5601 5606 5610 5612 5615 5618 5621 5623 5625 5627 5629 5631 5631 5630 5630 5630 5629 5629 5629 5628 5627 5626 5625 5623 5621 5620 5618 5616 5613 5611 5608 5605
5554 5556 5557 5561 5566 5569 5573 5576 5579 5582 5588 5593 5598 5602 5605 5607 5609 5612 5615 5616 5618 5620 5621 5623 5624 5623 5623 5622 5621 5621 5620 5619 5617 5616 5614 5613 5612 5610 5608 5606 5604 5601 5599
5553 5554 5555 5559 5563 5566 5569 5571 5573 5576 5580 5585 5590 5594 5598 5600 5602 5605 5608 5609 5610 5611 5612 5614 5614 5614 5615 5615 5614 5612 5611 5611 5611 5610 5607 5606 5605 5603 5601 5599 5597 5594 5592
Wind_Speed
28 22 14 14 15 16 17 19 20 17 17 16 10 7 8 7 5 6 8 10 10 12 16 10 18 21 24 23 23 21 22 17 14 11 9 7 6 7 6 5 3 1 3
25 19 13 12 13 15 15 16 16 17 15 15 16 14 12 11 9 9 8 11 14 16 19 19 20 21 20 18 16 16 16 10 10 9 9 8 8 7 5 4 3 2 2
23 16 12 12 12 13 13 13 14 14 16 17 15 14 13 13 13 13 12 12 13 12 15 14 13 12 12 12 12 13 14 14 15 13 13 11 9 9 8 7 8 7 6
21 15 12 12 12 11 9 10 11 11 12 14 15 16 16 16 15 15 13 15 14 16 17 17 17 16 18 19 18 17 17 15 15 14 15 14 14 13 11 10 9 9 9
19 15 12 12 12 11 8 8 9 8 10 12 13 13 13 14 15 17 18 19 19 18 19 20 20 19 19 19 19 19 20 19 19 18 17 16 16 14 12 10 9 10 11
18 15 12 11 11 10 7 4 6 5 7 9 11 13 14 14 15 16 17 17 19 19 18 19 20 21 22 22 23 23 22 21 20 19 18 15 12 10 8 7 7 8 9
17 15 13 10 10 9 6 2 3 2 4 7 9 11 12 14 16 18 19 20 20 20 20 20 21 22 22 22 22 22 21 19 17 14 11 9 7 6 5 5 6 7 9
17 15 12 11 9 8 7 2 0 2 2 5 7 8 11 13 15 17 18 18 18 19 18 18 19 20 20 20 18 16 14 13 11 9 7 6 5 5 5 7 9 11 14
17 16 14 11 10 9 8 6 3 3 4 5 6 7 9 11 12 13 15 16 16 17 18 17 16 14 13 12 11 10 9 7 7 6 4 3 3 5 7 10 12 14 17
20 16 16 13 12 12 10 8 7 6 7 6 7 8 8 9 10 11 11 12 12 13 13 12 12 11 9 8 7 5 4 4 3 2 2 5 7 9 11 13 16 18 19
23 19 17 16 13 15 14 11 12 11 11 11 9 10 11 10 10 10 10 9 9 10 9 8 7 6 5 3 2 1 1 2 3 5 7 9 12 14 17 19 20 22 23
23 22 20 18 17 15 18 16 15 16 15 14 12 12 13 13 12 12 11 10 9 7 6 5 4 3 3 2 3 4 5 6 8 9 11 13 16 18 20 22 23 24 25
24 23 21 21 20 19 18 20 20 19 19 18 17 16 16 16 16 15 13 12 11 9 8 7 6 6 6 6 6 7 7 9 11 13 14 16 18 20 21 23 24 26 27
25 31 25 23 24 22 21 20 23 23 22 22 22 21 20 21 20 18 16 16 15 14 12 11 11 10 10 9 10 10 12 14 16 18 19 20 22 23 24 25 25 27 29
22 25 28 27 26 25 23 24 23 25 26 25 25 25 25 24 22 21 20 20 20 19 17 16 15 14 13 13 14 15 16 19 21 22 23 25 27 28 28 27 28 28 29
24 21 25 26 26 26 25 26 26 26 27 28 27 26 27 27 27 26 25 24 24 24 23 22 21 19 19 18 19 19 21 23 25 26 28 30 30 30 30 30 30 30 30
30 31 29 25 30 29 27 28 28 26 28 26 27 28 28 29 29 29 29 28 28 28 28 27 27 25 25 24 24 24 26 28 29 30 31 32 31 31 32 32 32 31 31
32 34 27 24 30 32 32 33 31 28 26 27 26 27 30 30 30 29 31 31 31 31 31 30 30 30 29 30 30 30 31 32 32 32 32 32 32 32 33 33 32 31 30
27 32 35 34 33 34 32 34 34 30 27 26 27 27 28 27 29 31 32 31 31 32 33 33 32 33 33 34 33 32 32 33 33 33 33 33 34 33 32 32 30 29 28
30 29 30 32 38 30 30 31 34 33 33 30 28 29 28 26 25 27 28 31 33 33 33 33 33 33 33 33 32 32 34 34 34 34 35 34 32 31 29 28 27 27 26
37 35 32 29 30 40 37 34 34 34 32 29 30 30 27 28 25 29 27 26 29 30 30 31 31 32 33 33 32 32 34 33 32 32 31 30 29 27 26 26 26 26 25
42 37 36 33 32 32 36 36 36 34 30 34 31 34 32 28 28 28 28 27 26 24 24 26 27 27 28 28 28 28 27 27 27 27 27 26 26 25 25 25 24 24 24
40 34 30 31 32 30 30 38 41 34 35 34 35 34 31 29 30 28 28 27 24 25 23 22 21 22 23 23 22 23 23 22 22 22 22 23 24 24 23 23 23 23 23
20 23 21 26 27 27 23 28 31 36 34 38 29 27 25 26 30 30 28 29 28 27 27 25 23 24 24 24 23 22 23 22 23 23 22 23 24 24 25 25 25 24 23
7 11 12 18 21 22 19 20 24 26 37 36 31 29 25 24 26 29 30 27 27 27 27 26 26 26 26 27 28 26 25 26 25 26 25 25 25 25 25 25 24 25 23
4 7 6 12 14 16 16 14 19 18 24 34 34 30 28 24 24 24 27 26 27 28 30 29 27 25 27 26 26 28 30 29 26 24 26 25 23 22 22 23 24 25 24
Wind_Direction
338 336 338 340 349 348 355 4 9 17 26 33 24 14 25 29 27 26 49 47 68 81 109 108 107 107 120 114 123 122 123 118 130 145 156 169 165 161 154 147 152 250 288
340 338 337 336 346 346 353 7 10 23 31 40 49 53 55 61 54 56 75 75 95 87 102 104 112 113 116 122 125 133 137 131 140 145 130 128 127 120 108 96 78 53 30
340 336 331 331 340 344 354 6 13 19 37 46 49 53 56 57 61 68 79 93 104 99 104 107 99 104 105 107 114 115 119 123 124 125 123 120 112 106 107 99 95 91 73
336 330 325 327 334 335 350 9 15 21 36 47 55 58 62 68 73 79 85 93 96 104 109 111 113 114 113 114 114 112 113 116 114 115 113 112 112 112 106 94 79 66 47
330 326 319 323 327 330 340 7 14 23 47 57 62 65 68 73 78 84 90 96 100 100 102 105 106 106 108 111 112 112 108 109 110 111 111 110 105 97 87 66 46 32 22
321 324 310 315 318 323 331 358 10 18 63 69 72 75 79 85 88 90 92 93 95 98 100 103 105 105 107 108 110 111 112 113 112 109 102 96 91 77 58 42 25 12 8
311 314 308 300 307 316 311 328 10 341 76 81 82 84 89 92 97 97 98 98 100 102 102 103 106 106 107 108 109 109 108 105 103 102 100 92 78 66 55 35 14 356 349
302 301 303 285 287 298 290 256 161 251 134 103 104 107 106 103 106 108 109 110 110 109 106 105 105 107 109 109 108 108 107 105 101 97 91 82 67 41 23 10 4 356 350
293 287 289 284 267 267 277 248 202 221 199 151 132 126 120 121 118 117 116 115 116 115 116 118 117 114 111 107 104 103 102 101 98 92 79 55 22 357 348 345 343 343 340
283 280 278 279 267 250 255 246 220 219 217 195 173 158 152 142 136 133 128 125 125 123 122 120 118 116 114 113 110 106 104 101 97 67 357 334 331 327 323 325 325 328 328
276 272 269 269 263 252 242 236 231 213 220 215 206 190 182 175 164 157 152 145 142 139 135 130 129 127 125 119 105 82 348 321 317 316 315 316 317 315 316 320 320 319 320
276 271 267 261 261 253 246 233 229 226 219 218 216 212 206 197 195 186 180 175 169 171 170 172 179 190 208 232 258 275 289 299 305 309 311 315 316 318 319 318 319 321 320
280 262 266 261 255 251 245 242 233 230 227 222 217 216 215 215 210 207 204 204 197 200 208 218 229 234 243 255 269 282 291 298 304 308 312 312 312 314 313 311 313 314 315
287 290 265 261 256 250 247 240 240 231 229 228 221 217 221 221 219 216 215 220 220 218 225 233 239 243 248 258 270 281 292 298 302 306 306 308 311 313 311 310 312 313 313
272 276 269 259 256 252 249 246 239 235 232 229 229 223 224 228 227 226 225 224 225 227 232 240 246 249 254 261 268 277 286 293 296 300 302 306 310 308 307 308 310 311 311
250 240 253 256 251 251 247 250 247 238 234 233 230 230 228 231 232 230 230 232 232 230 232 239 246 250 255 261 267 275 281 285 291 298 301 301 300 300 302 304 306 309 309
261 255 264 263 258 253 249 246 249 240 238 236 237 235 234 236 235 237 238 238 237 238 240 243 248 253 259 263 268 274 280 285 289 293 293 293 294 297 300 302 306 308 308
268 264 254 248 250 246 252 250 245 245 244 244 238 240 239 238 241 241 242 242 244 246 245 248 253 259 263 268 272 275 279 283 285 286 288 292 295 298 300 303 305 305 306
276 267 258 247 240 247 250 246 242 240 240 237 246 245 244 241 241 243 244 244 247 249 251 253 255 259 264 268 273 276 277 279 282 285 288 290 293 297 300 301 302 304 307
280 271 265 264 245 239 246 247 238 240 240 239 244 245 249 248 247 248 246 248 249 249 251 254 257 261 264 268 271 274 277 280 283 286 289 292 295 295 296 299 301 304 306
274 269 261 261 248 250 244 241 241 239 238 238 235 248 246 246 248 252 250 250 252 252 254 258 262 264 266 270 272 275 277 280 283 286 288 291 294 296 298 300 302 304 306
271 264 257 251 251 243 241 240 234 237 238 227 238 249 250 243 244 248 250 250 253 257 255 255 258 263 267 269 271 274 278 282 286 289 292 295 295 294 294 297 301 303 304
264 264 261 247 246 248 241 239 235 236 236 244 236 239 246 241 242 244 247 248 253 253 254 258 261 266 269 272 274 275 275 279 282 286 288 289 290 293 297 300 301 301 301
263 262 263 242 240 246 250 238 244 233 230 230 231 236 249 246 244 243 242 250 253 260 263 261 261 265 268 268 267 271 276 279 282 284 286 290 292 294 296 297 299 299 300
330 300 273 239 237 244 246 245 238 242 222 232 236 237 245 249 244 243 240 245 251 255 256 258 259 260 263 270 274 274 276 278 282 287 290 294 296 297 299 303 303 302 299
334 328 269 233 238 245 244 253 243 241 248 227 229 230 238 245 241 238 246 260 262 260 258 255 258 262 269 267 268 274 279 281 282 286 289 287 292 297 300 302 303 300 298